Location: Grandview
(34.8900°N, 117.1058°W)
Time: 13:55:22
(UTC-07:00)

Tiangong 1 - Pass Details

Date: 14 October 2017
Orbit: 292 x 319 km, 42.8° (Epoch: 23 October)

Event Time Altitude Azimuth Distance (km) Brightness Sun altitude
Rises 20:07:04 0° 296° (WNW) 2,033 5.9 -23.9°
Reaches altitude 10° 20:09:03 10° 295° (WNW) 1,197 4.5 -24.3°
Enters shadow 20:09:47 17° 294° (WNW) 897 3.7 -24.4°
